Regional Weather Roundup
Issued by NWS

Home | Current Version | Previous Version | Text Only | Print | Product List | Glossary Off
Versions: 1 2 3 4 5 6 7 8 9 10 11 12 13 14 15 16 17 18 19 20 21 22 23 24 25 26 27 28 29 30 31 32 33 34 35 36 37 38 39 40 41 42 43 44 45 46 47 48 49 50

000
ASUS45 KBOI 312310
RWRID
WEATHER ROUNDUP FOR IDAHO
NATIONAL WEATHER SERVICE BOISE ID
500 PM MDT THU JUL 31 2014

NOTE: "FAIR" INDICATES FEW OR NO CLOUDS BELOW 12000 FEET
WITH NO SIGNIFICANT WEATHER AND/OR OBSTRUCTIONS TO VISIBILITY

IDZ012-014-010000-
SOUTHWEST IDAHO


CITY           SKY/WX    TMP DP  RH WIND       PRES   REMARKS
BOISE          PTSUNNY   95  45  17 NW8       30.01F HX  91
CALDWELL       NOT AVBL
MOUNTAIN HOME  PTSUNNY   94  44  17 VRB3      30.01F HX  90
$$

IDZ016-017-010000-
SOUTHCENTRAL IDAHO


CITY           SKY/WX    TMP DP  RH WIND       PRES   REMARKS
BURLEY         CLOUDY    86  42  21 N5        30.09F
JEROME         PTSUNNY   90  42  18 E10       30.10F
TWIN FALLS     PTSUNNY   89  42  19 NE9       30.11F
$$

IDZ019>023-010000-
SOUTHEAST IDAHO


CITY           SKY/WX    TMP DP  RH WIND       PRES   REMARKS
IDAHO FALLS    MOSUNNY   88  36  15 VRB3      30.16F
POCATELLO      MOSUNNY   89  44  20 N9        30.13F
REXBURG        MOSUNNY   85  37  18 VRB3      30.17F
$$

IDZ006-010-011-018-031-032-010000-
CENTRAL IDAHO MOUNTAINS


CITY           SKY/WX    TMP DP  RH WIND       PRES   REMARKS
MCCALL         CLOUDY    79  42  26 SW5       30.20F
HAILEY         MOSUNNY   75  46  35 NW12      30.24S THUNDER
STANLEY          N/A     79  35  20 E7        30.27F
SALMON         MOSUNNY   90  37  15 NW5       30.05S
CHALLIS        MOSUNNY   87  35  15 N5        30.16F
$$

IDZ002-004-006-007-026-010000-
NORTHERN IDAHO


CITY           SKY/WX    TMP DP  RH WIND       PRES   REMARKS
LEWISTON       PTSUNNY  102  41  12 NW15      29.94F HX  97
LOWELL           N/A     95  58  28 CALM      29.93F HX  94
COEUR D`ALENE  SUNNY     99  37  12 W10G18    29.99S HX  93
MULLAN PASS    MOSUNNY   80  37  21 VRB3      30.29F
$$



USA.gov is the U.S. government's official web portal to all federal, state and local government web resources and services.